ROMMA est une association bénévole à but non lucratif. Votre soutien est indispensable : ADHERER à ROMMA ou FAIRE un DON

Saint-Vallier-de-Thiey - (06, Alpes-Maritimes)

Côte-d'Azur (723 m)   Longitude: 06° 50' 21" E   Latitude: 43° 42' 8" N Station partenaire n°150
 

Détail journalier du     <<     >>

Température Precipitation Humidité Pression Vent Dir Rafale Dir. rafale
Heure (°C) (mm) (%) (hPa) (km/h) (km/h)
01:00 11.809410181NNE10NNO
02:00 11.609310182NNE13NNE
03:00 11.109110184NNO11NNO
04:00 10.509210182N6NNO
05:00 10.109410182N6N
06:00 10.909110184NNO10NNO
07:00 10.809010193N13N
08:00 10.209110192NNO6NNO
09:00 10.809210192NNO5NNO
10:00 12.6093102005NNO
11:00 14.9080102002NNO
12:00 16.108110211E3NNE
13:00 17.407210211E5E
14:00 18.806710212E8SSE
15:00 19.706210202SSO5SSO
16:00 19.406310203SO10SSO
17:00 18.706710213SSE11SSE
18:00 18.107110211SO6S
19:00 13.908610222SO5SO
20:00 13.208610221N8ONO
21:00 12.808610232N8NNO
22:00 12.608610231N5N
23:00 12.308510232N5N
minuit 11.808710242N5N

Graphique du 25-10-2019

 

Serveur OMMA